GFSFLT1_250_rhum_102.txt.gz
RH
78 70 74 66 52 46 50 44 40 38 48 46 49 40 62 52 25 22 18 12 17 19 86 76 100 100 100 100 100 100 100 99
78 70 75 81 49 56 69 52 43 40 62 51 51 41 69 40 26 24 19 14 17 19 100 87 100 100 100 100 100 100 99 90
70 65 62 55 84 81 56 49 42 68 64 50 52 42 79 35 28 25 23 16 17 18 100 93 100 100 100 100 100 100 100 100
100 100 100 100 99 70 53 47 42 68 63 48 54 44 82 30 30 27 26 18 18 23 100 100 96 100 100 100 100 100 100 100
92 91 90 87 85 54 56 50 48 66 60 50 49 46 65 30 29 31 26 19 19 23 100 100 84 100 100 100 100 100 100 100
100 85 84 80 60 58 59 49 46 62 58 46 45 60 46 30 30 34 27 19 20 25 88 100 100 94 100 100 100 100 100 100
71 67 66 62 50 57 51 45 57 55 52 45 53 78 35 31 31 35 33 21 19 23 28 100 100 93 99 100 100 100 100 100
76 70 57 56 58 62 42 41 52 44 49 46 84 83 34 32 32 35 35 27 21 22 24 38 100 100 98 98 100 100 99 98
71 57 48 69 55 52 41 43 38 49 44 55 92 65 38 33 33 35 32 33 28 24 25 23 34 100 100 100 100 100 100 100
70 59 78 76 47 43 41 38 43 41 41 90 100 61 42 36 37 41 38 35 36 28 26 28 24 33 66 99 100 100 100 100
58 83 79 48 38 34 36 40 36 34 53 100 100 74 48 41 39 52 59 47 42 34 26 26 26 24 23 32 55 91 98 100
75 59 46 34 31 33 38 30 32 39 92 100 100 90 50 50 42 46 74 72 62 47 34 31 28 27 26 24 44 69 77 99
59 56 46 37 38 37 28 28 43 54 100 100 99 96 59 54 46 42 62 93 87 75 49 43 39 34 34 28 27 41 89 96
61 56 48 43 39 32 36 42 53 83 100 100 100 100 73 52 54 53 75 93 83 100 100 91 58 44 41 44 41 38 43 69
63 55 48 43 37 47 54 52 60 99 100 100 100 100 98 72 64 62 70 92 96 100 100 100 100 72 49 43 42 39 42 45
60 88 62 59 72 58 78 60 60 93 100 100 100 100 100 100 98 98 97 100 100 100 100 100 100 100 70 59 49 48 50 53
88 75 99 78 92 79 91 87 83 89 100 100 100 100 100 100 100 100 100 100 100 98 100 100 93 93 93 76 74 59 52 52
100 100 93 86 95 90 97 96 100 98 100 100 100 100 100 100 100 100 100 100 100 91 88 98 100 100 100 91 78 78 73 58
99 100 71 100 95 90 100 97 99 100 100 100 100 100 100 100 100 100 76 69 94 91 82 85 100 95 89 86 78 87 85 68

GFSFLT1_250_rhum_108.txt.gz
RH
100 100 100 95 100 100 100 100 100 99 84 65 64 61 47 46 74 80 44 44 49 46 59 44 27 21 20 15 21 42 91 100
100 100 100 100 100 100 100 100 100 100 99 68 68 62 51 90 82 43 49 47 47 48 58 41 24 17 14 15 30 60 100 100
66 81 96 100 100 100 100 100 100 100 88 84 75 78 100 77 46 46 47 51 49 47 58 40 22 16 14 17 46 100 100 100
72 85 89 97 100 95 97 97 98 100 95 78 68 68 51 69 56 47 47 51 52 47 58 36 20 16 15 26 64 90 94 98
99 100 100 98 96 100 98 99 99 100 100 80 62 58 89 78 53 48 48 50 52 45 56 32 19 15 16 76 97 87 100 100
100 100 100 100 100 100 100 100 100 100 99 88 73 70 84 57 54 54 52 50 51 48 49 26 18 14 19 100 100 77 100 100
86 100 100 100 100 100 100 99 82 73 90 95 81 75 66 68 62 63 56 52 56 50 39 25 21 15 18 100 100 87 95 100
98 100 96 100 97 92 87 79 72 76 79 79 68 70 70 72 66 57 60 52 57 54 30 29 21 17 19 87 100 84 100 100
89 98 100 100 98 98 89 80 70 84 82 76 69 72 73 63 60 57 72 52 57 55 29 31 21 18 18 43 100 100 74 91
80 93 100 100 100 100 100 100 92 91 82 77 68 60 71 57 54 52 77 58 60 55 30 32 22 21 21 21 100 100 100 100
74 96 100 100 100 100 98 99 92 74 76 70 71 61 61 65 65 64 59 72 62 56 31 31 26 23 26 24 49 100 100 100
95 100 100 100 100 100 100 96 84 81 87 67 69 58 66 66 78 57 64 67 76 50 33 32 28 29 29 28 26 30 95 100
95 98 100 100 100 100 100 92 88 73 71 62 51 79 85 83 67 61 67 61 100 48 32 37 34 40 40 40 33 26 24 28
95 98 96 98 92 92 89 81 82 67 60 58 58 63 69 59 73 63 54 65 100 46 33 42 44 43 45 53 49 55 41 29
98 92 88 96 96 90 74 59 58 65 55 51 49 51 59 62 83 71 61 97 98 45 36 42 56 61 68 91 96 89 74 60
93 84 77 77 76 68 63 56 49 50 51 49 51 54 60 66 80 99 100 100 96 48 41 41 49 49 51 80 100 100 95 90
96 100 92 75 56 48 55 63 63 56 56 53 50 54 72 77 100 100 100 100 98 59 47 49 51 58 61 84 92 100 100 100
100 83 64 59 57 64 98 87 83 78 72 68 56 72 79 100 100 100 100 100 100 100 84 68 67 76 95 100 100 100 97 96
77 74 64 65 84 98 98 94 100 93 91 90 91 94 100 100 100 100 100 100 100 100 100 100 100 100 100 100 99 82 91 99

GFSFLT1_250_rhum_111.txt.gz
RH
51 38 46 98 100 98 97 71 98 100 100 98 100 100 100 100 83 73 65 62 52 44 47 43 44 44 47 47 26 18 15 21
57 48 52 77 97 98 81 79 70 100 100 100 100 78 100 100 100 71 71 58 42 50 48 46 44 45 46 46 24 16 16 24
54 58 50 61 70 86 100 100 96 100 100 63 73 99 100 100 94 86 74 54 40 58 52 52 44 44 48 48 23 15 17 25
62 58 51 53 55 56 76 89 100 100 100 100 93 98 99 93 95 88 77 54 57 57 55 51 46 43 50 44 22 15 19 36
57 52 58 59 70 79 57 57 74 94 100 100 96 98 100 100 94 78 73 71 68 61 60 52 48 45 50 40 21 15 28 66
63 72 85 66 63 99 100 100 100 100 100 100 100 100 98 97 84 70 75 67 58 65 55 55 52 48 50 31 21 18 73 99
76 70 76 84 74 75 100 100 100 100 100 100 100 100 100 92 73 70 75 63 59 59 51 58 54 53 46 25 19 18 83 100
88 77 68 65 81 75 88 97 100 100 100 100 100 96 95 75 69 76 76 72 68 58 53 61 53 56 38 26 20 19 94 99
96 92 85 73 70 82 98 84 93 77 92 100 100 86 68 78 92 100 91 77 71 56 53 57 52 56 30 27 22 19 100 100
100 100 95 86 76 70 81 75 70 75 78 100 100 90 100 94 88 88 90 90 88 60 64 60 53 49 28 30 24 18 92 100
100 100 96 91 93 80 72 92 81 79 73 84 93 83 71 56 76 99 91 96 68 68 80 62 57 47 29 30 25 22 43 100
81 76 96 98 90 74 76 88 100 100 99 73 86 80 80 66 73 100 100 100 81 73 92 61 60 40 31 27 26 26 28 83
59 64 75 77 87 74 86 99 100 100 97 74 80 72 64 67 86 100 100 100 78 94 83 64 68 37 32 35 30 27 27 33
60 64 74 71 63 63 76 87 92 94 90 81 80 73 64 62 85 100 100 100 79 94 76 64 75 39 33 39 40 39 31 31
100 96 67 70 73 86 85 92 93 86 90 92 76 71 63 70 87 97 100 95 99 97 74 60 83 40 34 44 46 47 43 59
78 78 74 73 70 78 85 88 86 98 96 82 67 64 72 64 72 91 72 80 100 100 68 58 93 43 35 43 51 59 66 60
100 100 100 98 99 100 100 99 94 80 67 73 77 78 69 50 81 75 97 83 99 91 70 68 100 54 37 40 54 66 68 62
100 100 98 95 96 100 93 94 89 75 65 57 62 70 62 76 91 96 87 94 96 87 89 100 100 73 42 42 46 54 58 58
98 89 97 100 100 95 88 63 69 83 90 98 86 74 58 77 97 100 100 100 100 93 100 100 100 96 58 49 52 60 65 74

GFSFLT1_250_rhum_114.txt.gz
RH
67 50 39 54 54 51 49 53 78 96 99 74 53 80 100 100 100 100 100 78 92 100 94 73 55 49 47 46 38 42 49 43
83 62 48 44 60 50 44 50 98 100 100 100 100 60 98 100 100 100 99 87 97 100 90 72 58 60 43 47 39 39 48 43
85 81 59 47 43 43 45 46 75 100 100 100 100 75 83 95 61 87 85 97 79 100 77 72 60 56 49 50 38 38 46 39
69 66 65 55 40 39 48 53 58 91 100 100 100 100 100 100 100 99 80 88 100 100 88 70 60 53 47 46 40 37 46 40
80 92 84 68 55 53 60 60 58 71 73 88 88 65 64 82 95 84 94 100 100 100 84 63 54 58 56 48 41 38 43 35
97 81 84 84 77 80 66 66 62 63 72 91 89 70 50 57 98 100 100 100 100 93 78 52 61 75 70 50 41 40 44 25
77 84 83 100 100 100 82 69 62 65 75 94 100 100 100 97 100 100 100 100 96 90 85 66 82 73 75 53 42 45 43 23
94 100 100 96 98 91 86 80 89 70 64 95 100 100 100 94 100 98 99 98 82 79 81 91 82 96 71 53 42 49 41 24
92 92 95 96 96 91 85 93 97 97 90 78 93 100 100 100 98 100 86 84 87 94 94 83 98 97 66 57 46 50 35 22
76 70 96 100 90 96 90 90 83 69 77 96 93 93 100 99 95 90 100 98 76 80 100 100 99 99 66 63 50 47 36 25
54 65 79 100 100 100 100 100 97 96 83 68 76 89 100 82 74 98 87 68 97 100 100 100 100 98 72 67 54 43 37 28
63 73 77 90 100 100 100 100 100 100 92 90 76 67 73 71 65 71 100 99 100 100 100 100 100 99 68 64 56 41 35 31
64 78 84 98 98 100 100 100 100 93 89 85 67 60 67 71 71 89 100 100 100 100 100 100 100 97 74 59 58 40 36 32
63 73 82 96 100 100 100 99 100 96 93 87 64 60 62 64 84 94 100 100 75 100 100 100 99 98 79 60 58 40 39 32
80 58 56 67 83 90 90 85 77 82 83 64 61 64 65 66 84 94 98 84 80 100 100 100 100 100 88 60 62 42 43 37
100 93 65 66 76 76 72 80 72 69 56 60 66 58 60 67 71 66 62 80 100 100 100 100 100 100 92 62 61 50 43 44
100 100 100 100 100 98 100 85 67 75 78 68 66 65 67 65 65 75 82 94 100 100 100 100 100 100 80 60 62 57 43 48
100 94 82 74 94 100 100 100 95 83 83 94 90 86 79 78 86 89 84 91 84 89 99 99 98 81 70 70 65 62 44 47
100 94 87 82 79 80 66 86 95 94 92 94 100 90 94 89 81 80 76 82 94 80 99 97 99 83 79 74 70 80 54 47

GFSFLT1_250_rhum_117.txt.gz
RH
26 45 100 80 63 49 60 53 48 44 43 44 52 65 66 82 91 83 94 100 100 90 63 97 100 100 97 78 67 52 46 39
23 34 100 99 69 58 50 48 47 49 45 49 69 80 60 83 94 94 100 89 63 54 65 100 100 100 97 83 59 50 52 42
22 29 58 71 65 72 54 46 51 61 52 56 60 100 70 57 61 82 95 84 82 84 100 90 98 100 97 76 51 59 56 46
24 24 23 50 70 80 66 47 50 74 66 59 62 93 85 80 100 100 100 99 93 96 92 87 98 100 97 77 51 66 63 52
22 23 25 43 60 79 73 58 56 66 65 67 76 78 65 44 55 82 100 91 65 58 88 100 100 100 90 72 57 83 60 56
19 24 31 36 49 87 92 74 62 67 69 75 74 79 94 93 61 96 100 99 77 76 100 100 100 93 87 73 70 72 61 51
19 26 38 41 79 100 100 85 72 72 63 67 69 74 85 100 100 92 98 86 81 100 100 100 100 96 99 88 76 72 68 51
23 28 41 57 100 100 100 100 84 80 64 70 78 99 96 86 100 100 100 92 93 100 100 100 100 99 99 84 70 94 65 57
25 35 47 67 100 100 100 100 100 85 75 66 78 100 100 100 100 100 95 92 82 85 100 100 100 100 78 83 80 100 69 66
32 38 45 55 99 100 100 100 100 99 92 84 72 77 96 100 97 100 100 100 100 100 100 100 95 93 79 89 76 85 71 68
48 40 48 58 84 100 100 100 100 100 100 100 100 82 64 78 73 84 92 95 95 88 93 87 82 99 98 80 86 74 81 56
50 53 53 55 65 92 99 100 100 95 100 100 100 100 96 81 73 65 68 73 74 94 100 94 100 100 100 90 82 72 82 65
37 37 40 52 66 80 96 100 100 100 100 100 100 100 100 100 100 79 80 75 74 96 100 100 100 100 100 82 76 78 96 78
61 46 44 49 63 77 80 90 85 92 100 100 100 100 97 100 100 100 96 74 70 88 100 100 98 100 100 76 72 79 90 82
87 75 67 59 68 74 70 74 84 89 94 100 100 100 95 97 91 82 79 83 78 100 99 92 98 100 98 88 57 70 79 66
100 87 63 65 69 74 83 84 82 82 81 87 89 94 87 78 69 75 69 87 100 100 100 98 99 100 100 100 83 72 81 77
100 100 100 99 83 78 79 83 98 100 100 92 79 80 68 71 68 67 60 59 74 99 79 96 100 100 100 100 97 86 74 84
100 100 100 96 84 85 85 97 99 89 77 84 76 78 65 60 57 62 61 59 59 49 50 86 100 100 100 100 100 100 100 100
100 100 99 100 100 100 98 100 99 90 80 75 81 87 88 93 82 64 63 65 61 60 100 95 100 93 100 100 100 100 100 100

GFSFLT1_250_rhum_123.txt.gz
RH
56 47 47 55 49 51 46 45 44 40 36 39 51 64 82 79 80 83 62 66 82 100 100 91 70 71 78 99 82 52 64 82
50 54 43 43 44 40 41 38 35 39 38 39 44 53 75 100 72 88 69 68 62 71 71 73 85 60 98 79 73 68 84 80
34 39 51 29 30 32 31 36 39 30 31 37 38 50 70 97 68 78 72 84 66 54 48 59 71 76 94 80 62 74 90 80
25 31 37 33 20 21 22 30 26 24 32 34 52 44 62 98 81 84 70 64 63 62 59 73 86 100 83 72 87 84 65 92
14 18 26 26 16 16 16 18 20 23 30 44 44 36 65 100 87 73 60 71 59 61 71 80 83 93 98 100 83 87 95 97
9 14 17 18 15 13 15 15 19 27 34 45 41 33 40 97 94 78 61 74 65 89 80 95 100 97 100 100 100 87 100 100
6 9 14 17 14 13 13 20 25 25 26 33 28 34 36 89 94 85 67 53 51 76 96 100 100 100 100 100 100 78 91 100
4 6 9 11 12 15 16 20 22 21 29 34 34 36 43 89 94 98 67 53 49 43 78 100 100 100 100 100 94 54 97 67
5 6 8 10 10 12 16 18 22 27 29 28 37 44 62 96 91 94 72 68 69 52 66 80 97 100 100 100 87 99 100 100
7 9 9 10 12 14 17 21 22 44 34 55 98 65 73 100 97 92 82 72 72 66 90 79 92 100 100 79 98 100 100 98
13 15 16 15 17 19 20 20 20 34 60 93 61 94 100 100 98 100 87 93 77 71 84 100 93 100 86 79 92 100 100 100
26 26 24 29 26 20 21 23 28 38 93 100 85 100 100 100 100 92 100 100 92 79 75 97 100 93 100 100 100 100 100 100
98 52 42 43 35 31 29 41 56 45 96 91 100 100 100 100 100 100 100 100 98 81 79 97 100 100 100 100 100 100 100 100
75 98 100 100 51 36 31 37 38 43 59 58 64 72 98 100 100 100 100 100 100 96 82 88 100 100 100 100 100 100 100 100
100 99 100 92 82 46 35 37 42 64 60 50 47 48 54 82 100 100 100 100 100 100 97 82 79 95 100 100 99 100 100 100
73 94 98 92 98 63 54 43 50 55 58 58 52 54 63 67 79 100 100 100 100 100 100 100 97 99 100 100 100 100 100 99
100 100 100 100 100 64 77 72 60 67 66 66 68 62 70 78 92 96 100 100 100 100 100 100 100 98 100 100 100 100 94 86
100 100 97 98 97 74 77 84 79 65 60 72 74 87 94 95 91 94 92 100 100 100 100 100 100 95 86 90 85 98 92 87
100 100 100 100 100 100 100 100 100 86 63 55 54 57 65 74 85 90 88 83 88 100 100 100 100 100 98 96 94 100 100 98

GFSFLT1_250_rhum_129.txt.gz
RH
52 55 55 66 94 91 65 77 90 100 100 100 94 73 81 100 100 98 82 67 44 33 40 43 93 94 78 60 60 92 53 69
33 40 52 51 53 77 79 98 94 73 78 67 88 87 100 100 100 100 78 62 51 33 35 34 66 90 72 61 53 61 77 60
28 30 30 36 40 42 84 82 89 92 85 75 76 100 100 100 100 92 85 71 56 45 31 30 35 83 68 67 65 77 77 67
16 18 22 24 34 40 44 91 99 85 100 100 93 81 67 65 75 88 80 53 41 44 30 27 31 81 72 70 84 68 56 58
12 14 14 15 19 29 44 41 52 75 80 77 97 77 78 84 70 65 70 68 71 78 61 29 29 61 89 96 85 60 62 64
5 7 8 9 11 19 25 47 41 32 59 92 71 68 100 100 100 82 100 100 100 92 95 29 26 40 98 96 82 74 71 75
3 4 4 5 7 10 19 26 46 33 30 45 50 49 64 65 85 100 100 100 100 93 100 66 31 29 80 80 76 72 85 100
3 2 3 3 4 5 9 16 28 41 21 32 28 44 56 72 100 100 100 100 100 100 100 90 54 32 46 76 73 79 100 100
4 3 3 3 3 4 6 8 15 24 27 23 31 49 55 69 100 100 100 100 100 100 98 100 74 46 41 70 71 88 100 100
7 5 4 3 3 3 4 6 9 15 22 23 24 30 46 70 98 100 100 100 100 98 92 100 61 38 56 66 87 89 100 100
9 8 6 5 4 4 4 4 7 11 15 20 21 15 33 68 89 100 100 100 100 100 100 72 66 34 34 68 79 90 100 100
10 11 7 6 6 5 5 5 5 8 14 18 21 26 52 98 60 96 91 98 99 97 100 80 98 57 29 60 84 83 100 100
11 16 13 9 10 7 6 6 6 8 12 22 28 26 33 54 64 71 56 56 68 81 45 78 42 30 28 55 87 100 100 100
34 37 55 23 20 18 12 10 9 10 12 16 24 32 37 43 36 26 30 31 32 29 34 38 35 26 29 51 100 97 100 100
73 57 100 100 83 74 29 22 17 17 15 17 20 28 22 18 19 26 30 33 37 39 29 29 32 36 33 54 95 99 100 100
88 86 100 100 96 100 99 72 55 38 62 90 100 93 79 54 50 57 38 43 44 42 40 45 58 96 64 67 94 99 100 100
83 100 100 100 100 100 100 100 90 100 100 100 100 100 100 98 100 100 100 100 100 100 100 100 100 96 100 100 100 100 96 100
92 100 100 100 100 100 100 91 100 100 100 100 100 100 100 100 100 98 100 100 100 100 100 100 100 100 78 86 79 86 60 73
100 100 96 100 100 100 100 100 98 100 100 100 100 100 100 100 100 100 95 96 100 97 98 100 100 96 78 68 75 69 62 60

GFSFLT1_250_rhum_135.txt.gz
RH
55 48 38 35 35 33 30 28 27 23 22 24 28 30 31 33 47 76 83 100 100 99 90 97 100 100 78 47 34 55 81 74
30 28 26 25 24 24 25 26 26 29 26 25 23 23 22 23 22 53 98 100 100 94 85 75 97 100 85 40 42 69 92 86
24 24 25 22 21 20 20 22 22 23 24 20 21 24 25 21 17 24 96 100 100 66 75 78 100 89 88 59 67 81 82 85
23 21 19 17 17 17 16 16 19 19 22 21 18 18 22 22 24 16 28 75 91 70 92 77 74 62 62 59 61 61 75 95
20 18 16 15 14 13 12 11 12 14 14 16 15 14 18 21 22 24 18 23 50 56 52 75 70 75 72 74 75 78 87 100
18 16 16 13 9 7 6 6 6 8 10 12 13 11 13 21 18 20 20 20 58 82 61 72 90 87 82 80 89 95 88 97
18 15 10 7 6 5 4 4 4 4 5 7 9 10 13 16 17 17 18 39 62 100 89 68 88 100 100 98 94 100 100 100
14 10 8 7 6 5 4 4 3 3 3 4 5 7 11 13 16 15 16 54 89 100 100 91 100 100 98 83 100 100 84 100
13 9 9 7 6 6 4 4 4 3 2 3 4 4 8 11 15 14 15 46 96 94 100 97 100 100 95 86 100 100 94 78
11 12 9 9 10 7 7 6 4 3 3 2 2 3 5 9 14 17 18 62 100 100 100 100 100 100 86 100 94 99 96 100
16 14 27 25 14 10 7 6 5 4 3 2 2 3 5 8 11 16 18 91 100 100 100 100 100 100 100 100 100 80 98 100
21 23 45 31 23 18 9 7 6 5 4 3 3 4 5 8 12 18 41 91 100 100 100 100 99 100 100 100 100 98 95 94
30 60 51 49 37 19 12 7 6 5 4 4 3 6 10 10 14 31 63 93 100 97 100 100 100 100 100 100 100 100 100 98
91 65 73 58 46 33 20 12 12 13 16 25 7 6 8 11 15 33 53 89 100 100 100 100 100 97 100 100 100 100 100 100
72 89 94 80 55 43 23 25 24 22 29 46 38 11 11 12 14 18 26 93 100 100 100 100 100 100 100 100 100 100 100 97
97 92 96 85 73 60 42 40 42 31 14 11 18 22 11 14 16 23 38 84 100 100 100 99 100 100 100 100 100 100 100 94
98 96 90 92 86 90 100 100 97 68 28 14 10 16 14 17 20 26 28 61 87 100 100 97 100 100 100 92 99 100 100 100
90 98 92 94 90 75 77 82 100 96 74 72 46 30 22 17 21 32 31 27 41 69 96 99 100 100 100 100 100 99 99 97
91 100 96 88 99 99 66 76 99 100 97 84 100 100 94 50 35 34 37 35 28 46 46 51 55 77 89 95 99 89 92 94

GFSFLT1_250_rhum_141.txt.gz
RH
91 95 96 99 100 100 100 100 100 97 99 82 70 72 68 61 47 39 35 34 27 41 68 67 90 83 97 100 100 92 94 100
56 68 80 89 90 88 86 79 83 84 80 80 71 58 51 38 57 58 53 44 29 27 47 73 100 100 100 100 95 100 91 63
40 39 43 52 63 74 75 69 58 50 47 59 55 53 60 67 60 56 46 29 24 21 18 70 100 100 96 93 100 100 86 69
35 37 35 31 30 33 41 48 48 44 36 36 36 36 36 30 25 19 20 19 16 16 17 19 96 100 100 100 87 100 100 67
40 31 29 29 28 25 22 21 19 18 17 16 16 16 16 16 16 15 15 16 15 14 15 17 75 99 100 100 100 91 90 88
42 34 32 26 24 22 23 20 20 18 15 12 12 11 11 11 12 13 13 12 13 12 13 17 60 96 100 100 96 98 100 97
50 43 39 28 25 24 22 19 17 14 14 15 14 12 10 9 9 8 9 8 8 11 11 13 53 100 100 98 62 100 90 93
50 50 40 33 28 23 18 16 16 16 14 11 8 7 6 5 4 5 4 4 5 7 10 14 48 93 97 89 100 100 100 88
44 40 38 30 26 22 20 17 15 11 10 8 8 8 6 4 5 4 3 3 4 5 8 12 35 42 87 100 99 100 100 100
42 39 31 27 30 24 19 15 12 12 10 12 10 7 5 5 4 3 3 3 3 4 8 13 20 23 86 100 83 100 99 100
42 40 37 35 27 21 17 15 15 15 14 30 41 16 10 4 3 3 3 3 3 4 7 10 16 28 90 100 100 100 100 100
46 49 42 31 23 21 18 16 25 25 21 53 47 24 13 6 3 3 3 3 3 4 7 12 16 23 46 100 100 100 99 100
59 49 35 29 24 22 18 31 30 41 30 47 66 68 44 19 4 4 3 4 4 5 8 13 17 22 23 34 62 100 86 95
57 38 31 29 27 24 36 52 41 52 49 38 72 72 57 32 8 5 5 4 5 7 11 15 20 24 31 57 94 96 100 100
45 37 31 31 31 45 64 75 61 65 53 56 49 40 58 19 8 14 6 6 6 9 13 17 25 29 35 64 94 100 100 100
40 36 33 25 33 59 73 84 81 74 69 75 63 51 44 64 24 24 14 7 10 14 19 20 27 36 40 54 100 100 100 100
38 35 34 27 46 66 76 87 93 82 98 81 72 59 37 35 79 39 23 9 13 21 20 25 32 43 42 65 100 100 100 98
37 36 38 34 58 81 76 89 100 93 90 88 77 72 64 38 38 70 48 15 16 22 21 27 32 43 50 59 91 100 100 100
38 36 39 42 64 78 67 77 94 97 97 100 88 79 73 57 42 38 37 38 20 24 26 31 34 41 49 56 91 100 100 100